Weather History for YBCS - June, 2013

Change the Weather History Date:

Friday, June 28, 2013

  Actual Average Record
Temperature  
Mean Temperature 72 °F -  
Max Temperature 79 °F 78 °F 82 °F (2010)
Min Temperature 65 °F 62 °F 51 °F (2007)
Cooling Degree Days 7    
Growing Degree Days 22 (Base 50)    
Moisture  
Dew Point 62 °F    
Average Humidity 70    
Maximum Humidity 88    
Minimum Humidity 46    
Precipitation  
Precipitation 0.00 in 0.04 in - ()
Sea Level Pressure  
Sea Level Pressure 29.99 in    
Wind  
Wind Speed 7 mph ()    
Max Wind Speed 14 mph    
Max Gust Speed -    
Visibility 6.5 miles    
Events      
Averages and records for this station are not official NWS values.
T = Trace of Precipitation, MM = Missing Value Source: Averaged Metar Reports

Daily Weather History Graph

Daily Weather History Graph

Search for Another Location

Airport or City:

Trip Planner

Search our weather history database for the weather conditions in past years. The results will help you decide how hot, cold, wet, or windy it might be!

Date:

Astronomy

Jun. 28, 2013 Rise Set
Actual Time 6:46 AM AEST 5:54 PM AEST
Civil Twilight 6:22 AM AEST 6:17 PM AEST
Nautical Twilight 5:55 AM AEST 6:44 PM AEST
Astronomical Twilight 5:29 AM AEST 7:11 PM AEST
Moon 10:52 PM AEST (6/28) 10:32 AM AEST (6/28)
Length of Visible Light 11h 54m
Length of Day
11h 07m
Waning Gibbous, 72% of the Moon is Illuminated
Jun 28
Waning Gibbous
Jun 30
Last Quarter
Jul 8
New
Jul 16
First Quarter
Jul 23
Full

Hourly Weather History & Observations

Time (AEST) Temp. Dew Point Humidity Pressure Visibility Wind Dir Wind Speed Gust Speed Precip Events Conditions
12:00 AM 67 °F 62 °F 77% 30.00 in - SE 8.1 mph - -  
12:00 AM 68.0 °F 60.8 °F 78% 29.98 in 6.2 mi SE 8.1 mph - N/A   Partly Cloudy
12:30 AM 66.2 °F 60.8 °F 83% 29.98 in 6.2 mi Calm Calm - N/A   Partly Cloudy
1:00 AM 65 °F 62 °F 88% 30.00 in - Calm Calm - -  
1:00 AM 66.2 °F 62.6 °F 88% 29.98 in 6.2 mi Calm Calm - N/A   Scattered Clouds
1:30 AM 66.2 °F 62.6 °F 88% 29.98 in 6.2 mi West 2.3 mph - N/A   Mostly Cloudy
2:00 AM 66.2 °F 62.6 °F 88% 29.98 in 6.2 mi West 3.5 mph - N/A   Mostly Cloudy
2:30 AM 68.0 °F 62.6 °F 83% 29.98 in 6.2 mi NE 1.2 mph - N/A   Mostly Cloudy
3:00 AM 69 °F 61 °F 68% 29.99 in - SE 11.5 mph - -   Overcast
3:00 AM 68.0 °F 60.8 °F 78% 29.98 in 6.2 mi SE 11.5 mph - N/A   Mostly Cloudy
3:30 AM 68.0 °F 60.8 °F 78% 29.98 in 6.2 mi SSE 9.2 mph - N/A   Mostly Cloudy
4:00 AM 68 °F 60 °F 69% 29.98 in - SSE 10.4 mph - -  
4:00 AM 68.0 °F 60.8 °F 78% 29.98 in 6.2 mi SSE 10.4 mph - N/A   Mostly Cloudy
4:30 AM 68.0 °F 60.8 °F 78% 29.98 in 6.2 mi SSE 10.4 mph - N/A   Mostly Cloudy
5:00 AM 68.0 °F 60.8 °F 78% 29.98 in 6.2 mi SSE 10.4 mph - N/A   Mostly Cloudy
5:30 AM 68.0 °F 62.6 °F 83% 29.98 in 6.2 mi SSE 11.5 mph - N/A   Mostly Cloudy
6:00 AM 67 °F 62 °F 78% 29.99 in 19 mi SE 10.4 mph - -   Partly Cloudy
6:00 AM 68.0 °F 62.6 °F 83% 29.98 in 6.2 mi SE 10.4 mph - N/A   Mostly Cloudy
6:30 AM 68.0 °F 60.8 °F 78% 29.98 in 6.2 mi SE 10.4 mph - N/A   Mostly Cloudy
7:00 AM 68.0 °F 60.8 °F 78% 30.01 in 6.2 mi SE 10.4 mph - N/A   Mostly Cloudy
7:30 AM 68.0 °F 60.8 °F 78% 30.01 in 6.2 mi SE 8.1 mph - N/A   Mostly Cloudy
8:00 AM 69.8 °F 60.8 °F 73% 30.01 in 6.2 mi SE 9.2 mph - N/A   Scattered Clouds
8:30 AM 71.6 °F 60.8 °F 69% 30.01 in 6.2 mi South 8.1 mph - N/A   Partly Cloudy
9:00 AM 74 °F 62 °F 58% 30.03 in 25 mi South 6.9 mph - -   Partly Cloudy
9:00 AM 73.4 °F 62.6 °F 69% 30.01 in 6.2 mi South 6.9 mph - N/A   Partly Cloudy
9:30 AM 75.2 °F 62.6 °F 65% 30.01 in 6.2 mi South 9.2 mph - N/A   Partly Cloudy
10:00 AM 76 °F 61 °F 51% 30.03 in - South 10.4 mph - -  
10:00 AM 77.0 °F 60.8 °F 57% 30.01 in 6.2 mi South 10.4 mph - N/A   Partly Cloudy
10:30 AM 77.0 °F 62.6 °F 61% 30.01 in 6.2 mi South 9.2 mph - N/A   Partly Cloudy
11:00 AM 77.0 °F 60.8 °F 57% 30.01 in 6.2 mi SE 11.5 mph - N/A   Partly Cloudy
11:30 AM 78.8 °F 60.8 °F 54% 29.98 in 6.2 mi ESE 10.4 mph - N/A   Partly Cloudy
12:00 PM 79 °F 62 °F 46% 29.98 in 25 mi ESE 10.4 mph - -   Partly Cloudy
12:00 PM 78.8 °F 62.6 °F 57% 29.98 in 6.2 mi ESE 10.4 mph - N/A   Partly Cloudy
12:30 PM 78.8 °F 62.6 °F 57% 29.95 in 6.2 mi East 10.4 mph - N/A   Partly Cloudy
1:00 PM 78 °F 62 °F 48% 29.96 in - ESE 9.2 mph - -  
1:00 PM 78.8 °F 62.6 °F 57% 29.95 in 6.2 mi ESE 9.2 mph - N/A   Partly Cloudy
1:30 PM 78.8 °F 62.6 °F 57% 29.95 in 6.2 mi ENE 13.8 mph - N/A   Partly Cloudy
2:00 PM 78.8 °F 62.6 °F 57% 29.92 in 6.2 mi East 12.7 mph - N/A   Partly Cloudy
2:30 PM 78.8 °F 62.6 °F 57% 29.92 in 6.2 mi East 12.7 mph - N/A   Partly Cloudy
3:00 PM 78 °F 62 °F 49% 29.93 in 25 mi East 13.8 mph - -   Partly Cloudy
3:00 PM 78.8 °F 62.6 °F 57% 29.92 in 6.2 mi East 13.8 mph - N/A   Partly Cloudy
3:30 PM 77.0 °F 62.6 °F 61% 29.92 in 6.2 mi ESE 12.7 mph - N/A   Partly Cloudy
4:00 PM 77 °F 62 °F 50% 29.95 in - East 12.7 mph - -  
4:00 PM 77.0 °F 62.6 °F 61% 29.95 in 6.2 mi East 12.7 mph - N/A   Partly Cloudy
4:30 PM 75.2 °F 60.8 °F 61% 29.95 in 6.2 mi ESE 11.5 mph - N/A   Partly Cloudy
5:00 PM 75.2 °F 62.6 °F 65% 29.95 in 6.2 mi ESE 10.4 mph - N/A   Partly Cloudy
5:30 PM 73.4 °F 62.6 °F 69% 29.98 in 6.2 mi SE 13.8 mph - N/A   Scattered Clouds
6:00 PM 72 °F 62 °F 63% 30.00 in - SE 10.4 mph - -  
6:00 PM 71.6 °F 62.6 °F 73% 29.98 in 6.2 mi SE 10.4 mph - N/A   Scattered Clouds
6:30 PM 71.6 °F 62.6 °F 73% 30.01 in 6.2 mi SE 10.4 mph - N/A   Scattered Clouds
7:00 PM 70 °F 62 °F 70% 30.02 in - SSE 8.1 mph - -  
7:00 PM 69.8 °F 62.6 °F 78% 30.01 in 6.2 mi SSE 8.1 mph - N/A   Partly Cloudy
7:30 PM 69.8 °F 62.6 °F 78% 30.01 in 6.2 mi SSE 6.9 mph - N/A   Scattered Clouds
8:00 PM 69.8 °F 62.6 °F 78% 30.04 in 6.2 mi South 5.8 mph - N/A   Scattered Clouds
8:30 PM 68.0 °F 62.6 °F 83% 30.04 in 6.2 mi South 5.8 mph - N/A   Partly Cloudy
9:00 PM 69 °F 62 °F 73% 30.05 in - Calm Calm - -  
9:00 PM 68.0 °F 62.6 °F 83% 30.04 in 6.2 mi Calm Calm - N/A   Partly Cloudy
9:30 PM 69.8 °F 62.6 °F 78% 30.04 in 6.2 mi South 5.8 mph - N/A   Partly Cloudy
10:00 PM 70 °F 62 °F 69% 30.07 in - South 5.8 mph - -  
10:00 PM 69.8 °F 62.6 °F 78% 30.06 in - South 5.8 mph - N/A   Clear
10:30 PM 69.8 °F 62.6 °F 78% 30.06 in - South 6.9 mph - N/A   Clear
11:00 PM 69.8 °F 62.6 °F 78% 30.04 in - South 6.9 mph - N/A   Clear
11:30 PM 69.8 °F 60.8 °F 73% 30.04 in - South 6.9 mph - N/A   Clear